Tiempo cada hora Alicante

Hoy, 26 Octubre, Lunes

Tiempo Temperatura Precipitaciones Viento Presión Humedad
00:00 +18°C° 0 mm 2 mps 759 mmHg 57%
01:00 +18°C° 0 mm 2 mps 759 mmHg 58%
02:00 +18°C° 0 mm 2 mps 758 mmHg 59%
03:00 +18°C° 0 mm 2 mps 758 mmHg 60%
04:00 +18°C° 0 mm 4 mps 759 mmHg 57%
05:00 +17°C° 0 mm 6 mps 759 mmHg 53%
06:00 +17°C° 0 mm 8 mps 759 mmHg 50%
07:00 +17°C° 0 mm 9 mps 760 mmHg 48%
08:00 +17°C° 0 mm 10 mps 760 mmHg 46%
09:00 +17°C° 0 mm 10 mps 761 mmHg 44%
10:00 +17°C° 0 mm 10 mps 761 mmHg 42%
11:00 +18°C° 0 mm 10 mps 761 mmHg 39%
12:00 +19°C° 0 mm 9 mps 761 mmHg 34%
13:00 +19°C° 0 mm 9 mps 761 mmHg 34%
14:00 +19°C° 0 mm 9 mps 760 mmHg 33%
15:00 +20°C° 0 mm 8 mps 760 mmHg 33%
16:00 +15°C° 0 mm 6 mps 763 mmHg 45%
17:00 +15°C° 0 mm 6 mps 762 mmHg 43%
18:00 +16°C° 0 mm 6 mps 762 mmHg 41%
19:00 +15°C° 0 mm 6 mps 762 mmHg 44%
20:00 +15°C° 0 mm 6 mps 763 mmHg 45%
21:00 +14°C° 0 mm 5 mps 763 mmHg 46%
22:00 +14°C° 0 mm 5 mps 764 mmHg 42%
23:00 +13°C° 0 mm 5 mps 764 mmHg 43%

Mañana, 27 Octubre, Martes

Tiempo Temperatura Precipitaciones Viento Presión Humedad
00:00 +13°C° 0 mm 5 mps 764 mmHg 44%
01:00 +15°C° 0 mm 6 mps 762 mmHg 45%
02:00 +13°C° 0 mm 5 mps 762 mmHg 49%
03:00 +12°C° 0 mm 4 mps 763 mmHg 53%
04:00 +12°C° 0 mm 4 mps 763 mmHg 55%
05:00 +11°C° 0 mm 4 mps 763 mmHg 57%
06:00 +11°C° 0 mm 3 mps 763 mmHg 59%
07:00 +13°C° 0 mm 4 mps 763 mmHg 54%
08:00 +15°C° 0 mm 4 mps 763 mmHg 48%
09:00 +17°C° 0 mm 4 mps 764 mmHg 43%
10:00 +18°C° 0 mm 4 mps 763 mmHg 39%
11:00 +19°C° 0 mm 5 mps 763 mmHg 35%
12:00 +21°C° 0 mm 5 mps 763 mmHg 31%
13:00 +21°C° 0 mm 5 mps 762 mmHg 31%
14:00 +21°C° 0 mm 5 mps 762 mmHg 30%
15:00 +22°C° 0 mm 5 mps 762 mmHg 30%
16:00 +20°C° 0 mm 5 mps 762 mmHg 35%
17:00 +19°C° 0 mm 4 mps 762 mmHg 40%
18:00 +17°C° 0 mm 4 mps 762 mmHg 45%
19:00 +17°C° 0 mm 4 mps 762 mmHg 46%
20:00 +17°C° 0 mm 4 mps 763 mmHg 47%
21:00 +15°C° 0 mm 4 mps 763 mmHg 48%
22:00 +15°C° 0 mm 4 mps 762 mmHg 53%
23:00 +15°C° 0 mm 4 mps 762 mmHg 55%

Pasado mañana, 28 Octubre, Miércoles

Tiempo Temperatura Precipitaciones Viento Presión Humedad
00:00 +15°C° 0 mm 4 mps 762 mmHg 57%
01:00 +14°C° 0 mm 4 mps 762 mmHg 59%
02:00 +14°C° 0 mm 4 mps 762 mmHg 61%
03:00 +14°C° 0 mm 3 mps 762 mmHg 63%
04:00 +14°C° 0 mm 3 mps 762 mmHg 64%
05:00 +14°C° 0 mm 3 mps 762 mmHg 65%
06:00 +14°C° 0 mm 3 mps 763 mmHg 67%
07:00 +17°C° 0 mm 3 mps 763 mmHg 61%
08:00 +18°C° 0 mm 3 mps 763 mmHg 55%
09:00 +20°C° 0 mm 3 mps 764 mmHg 49%
10:00 +22°C° 0 mm 3 mps 763 mmHg 45%
11:00 +24°C° 0 mm 2 mps 763 mmHg 42%
12:00 +26°C° 0 mm 2 mps 763 mmHg 38%
13:00 +26°C° 0 mm 3 mps 763 mmHg 38%
14:00 +27°C° 0 mm 3 mps 763 mmHg 37%
15:00 +27°C° 0 mm 4 mps 762 mmHg 37%
16:00 +25°C° 0 mm 3 mps 763 mmHg 44%
17:00 +22°C° 0 mm 3 mps 763 mmHg 50%
18:00 +20°C° 0 mm 3 mps 763 mmHg 57%
19:00 +20°C° 0 mm 2 mps 763 mmHg 57%
20:00 +19°C° 0 mm 2 mps 764 mmHg 57%
21:00 +19°C° 0 mm 2 mps 764 mmHg 58%
22:00 +19°C° 0 mm 2 mps 764 mmHg 60%
23:00 +19°C° 0 mm 2 mps 764 mmHg 62%

29 Octubre, Jueves

Tiempo Temperatura Precipitaciones Viento Presión Humedad
00:00 +18°C° 0 mm 2 mps 764 mmHg 65%
01:00 +18°C° 0 mm 2 mps 764 mmHg 68%
02:00 +18°C° 0 mm 2 mps 764 mmHg 71%
03:00 +17°C° 0 mm 2 mps 764 mmHg 74%
04:00 +17°C° 0 mm 2 mps 764 mmHg 75%
05:00 +17°C° 0 mm 2 mps 764 mmHg 77%
06:00 +17°C° 0 mm 2 mps 764 mmHg 78%
07:00 +20°C° 0 mm 1 mps 765 mmHg 71%
08:00 +22°C° 0 mm 1 mps 765 mmHg 63%
09:00 +24°C° 0 mm 1 mps 766 mmHg 56%
10:00 +24°C° 0 mm 2 mps 766 mmHg 54%
11:00 +25°C° 0 mm 3 mps 766 mmHg 51%
12:00 +26°C° 0 mm 3 mps 766 mmHg 49%
13:00 +26°C° 0 mm 3 mps 765 mmHg 51%
14:00 +25°C° 0 mm 3 mps 765 mmHg 53%
15:00 +25°C° 0 mm 3 mps 765 mmHg 56%
16:00 +22°C° 0 mm 3 mps 765 mmHg 64%
17:00 +21°C° 0 mm 2 mps 765 mmHg 73%
18:00 +19°C° 0 mm 2 mps 765 mmHg 81%
19:00 +19°C° 0 mm 1 mps 765 mmHg 83%
20:00 +19°C° 0 mm 1 mps 766 mmHg 85%
21:00 +18°C° 0 mm 1 mps 766 mmHg 87%
22:00 +18°C° 0 mm 1 mps 766 mmHg 86%
23:00 +18°C° 0 mm 1 mps 766 mmHg 86%

30 Octubre, Viernes

Tiempo Temperatura Precipitaciones Viento Presión Humedad
00:00 +15°C° 0 mm 0 mps 766 mmHg 85%
01:00 +16°C° 0 mm 1 mps 766 mmHg 84%
02:00 +16°C° 0 mm 1 mps 765 mmHg 83%
03:00 +15°C° 0 mm 1 mps 765 mmHg 82%
04:00 +15°C° 0 mm 1 mps 765 mmHg 83%
05:00 +15°C° 0 mm 1 mps 765 mmHg 83%
06:00 +15°C° 0 mm 1 mps 765 mmHg 83%
07:00 +18°C° 0 mm 1 mps 765 mmHg 74%
08:00 +20°C° 0 mm 1 mps 765 mmHg 66%
09:00 +23°C° 0 mm 1 mps 765 mmHg 58%
10:00 +24°C° 0 mm 2 mps 765 mmHg 53%
11:00 +25°C° 0 mm 2 mps 765 mmHg 49%
12:00 +26°C° 0 mm 3 mps 765 mmHg 44%
13:00 +25°C° 0 mm 3 mps 764 mmHg 45%
14:00 +25°C° 0 mm 3 mps 764 mmHg 46%
15:00 +25°C° 0 mm 3 mps 764 mmHg 46%
16:00 +22°C° 0 mm 3 mps 764 mmHg 56%
17:00 +20°C° 0 mm 2 mps 764 mmHg 66%
18:00 +18°C° 0 mm 2 mps 764 mmHg 75%
19:00 +19°C° 0 mm 1 mps 764 mmHg 75%
20:00 +19°C° 0 mm 1 mps 764 mmHg 75%
21:00 +18°C° 0 mm 1 mps 764 mmHg 76%
22:00 +18°C° 0 mm 1 mps 764 mmHg 75%
23:00 +18°C° 0 mm 1 mps 764 mmHg 74%

31 Octubre, Sábado

Tiempo Temperatura Precipitaciones Viento Presión Humedad
00:00 +16°C° 0 mm 1 mps 764 mmHg 73%
01:00 +16°C° 0 mm 1 mps 764 mmHg 73%
02:00 +16°C° 0 mm 1 mps 763 mmHg 72%
03:00 +15°C° 0 mm 1 mps 763 mmHg 71%
04:00 +15°C° 0 mm 1 mps 763 mmHg 71%
05:00 +15°C° 0 mm 1 mps 763 mmHg 70%
06:00 +15°C° 0 mm 1 mps 763 mmHg 69%
Mostrar más

Necesitamos Su Consentimiento

Meteoprog y nuestros Proveedores de Servicios pueden almacenar y acceder a sus datos personales como cookies, identificadores de dispositivo u otras tecnologías similares de su dispositivo y procesar dichos datos para personalizar contenido y anuncios, además de ofrecer funciones de redes sociales y analizar el tráfico.

  • Almacenar y/o acceder a información en su dispositivo

    Se puede almacenar o acceder a cookies, identificadores de dispositivo u otra información de su dispositivo para los fines anteriormente indicados.

  • Anuncios y contenido personalizados, medición de anuncios y contenido, percepciones del público, y desarrollo de productos

    Los anuncios y el contenido pueden personalizarse en base a su perfil. Se pueden añadir más datos para personalizar mejor los anuncios y contenidos. Se puede medir el rendimiento de los anuncios y contenidos. Se puede obtener la percepción sobre el público que ha visto los anuncios y contenidos. Dichos datos pueden usarse para desarrollar o mejorar la experiencia del usuario, sistemas y software.

Al hacer clic en ‘Estoy De Acuerdo’ usted permitirá el uso de las cookies, identificadores de dispositivo, balizas web u otras tecnologías similares indicadas. Su configuración puede cambiarse desde el navegador de su dispositivo.

Para ciertos fines, los intereses legítimos pueden ser considerados por encima del consentimiento. Puede leer más sobre ello en nuestra Política de Privacidad y Cookies.